カタログに戻る

CHINASAT 2A

運用中通信GEO
NORAD 38352·PAYLOAD·🇨🇳 China

打ち上げ May 26, 2012 から Xichang Satellite Launch Center

Loading…

TLE

最新Source: Space-Track

元期: Sep 14, 2026, 14:16 UTC

1 38352U 12028A   26257.59460109 -.00000300  00000-0  00000-0 0  9994
2 38352   1.6797  82.6208 0001010 140.1376  83.1491  1.00271516 52199

AllMySatでCHINASAT 2Aをリアルタイム追跡

Download on the App Store